Regional Weather Roundup
Issued by NWS

Home | Current Version | Previous Version | Graphics & Text | Print | Product List | Glossary On
Versions: 1 2 3 4 5 6 7 8 9 10 11 12 13 14 15 16 17 18 19 20 21 22 23 24 25 26 27 28 29 30 31 32 33 34 35 36 37 38 39 40 41 42 43 44 45 46 47 48 49 50
000
ASUS43 KFSD 200310
RWRSD

WEATHER ROUNDUP FOR SOUTH DAKOTA
NATIONAL WEATHER SERVICE SIOUX FALLS SD
1000 PM CDT SUN OCT 19 2014

NOTE: "FAIR" INDICATES FEW OR NO CLOUDS BELOW 12,000 FEET WITH NO
SIGNIFICANT WEATHER AND/OR OBSTRUCTIONS TO VISIBILITY.


SDZ001>005-009-010-012>017-200400-
NORTHWEST AND NORTH CENTRAL SOUTH DAKOTA

CITY           SKY/WX    TMP DP  RH WIND       PRES   REMARKS
BUFFALO          N/A     51  35  54 CALM      29.99S
FAITH            N/A     54  37  52 NE5       30.05R
MOBRIDGE       CLEAR     48  38  68 N7        29.99R
$$

SDZ012>016-024>037-041>051-057-063-072>074-200400-
SOUTHWEST AND SOUTH CENTRAL SOUTH DAKOTA

CITY           SKY/WX    TMP DP  RH WIND       PRES   REMARKS
RAPID CTY ARPT CLEAR     47  38  71 NW3       30.08R
PIERRE         CLEAR     57  38  48 N10       30.00R
CUSTER         CLEAR     44  36  73 NW3       30.16F
ELLSWORTH AFB  CLEAR     49  40  69 CALM      30.08R
PHILIP         CLEAR     46  38  73 W7        30.04R
PINE RIDGE     CLEAR     43  38  82 CALM      30.09R
SPEARFISH      FAIR      46  39  76 S7        30.10S
WINNER         FAIR      56  37  49 W7        30.02R
$$

SDZ004>011-016>023-039-040-200400-
NORTHEAST SOUTH DAKOTA

CITY           SKY/WX    TMP DP  RH WIND       PRES   REMARKS
ABERDEEN       CLEAR     50  38  63 NW5       29.98R
WATERTOWN      CLEAR     46  37  71 N6        29.96R
SISSETON         N/A     49  38  65 NW9       29.94R
$$

SDZ017-020-022-023-036>040-048>070-200400-
SOUTHEAST SOUTH DAKOTA

CITY           SKY/WX    TMP DP  RH WIND       PRES   REMARKS
SIOUX FALLS    CLEAR     49  40  71 NW3       29.94R
HURON          CLEAR     48  37  65 NW6       29.97R
CHAMBERLAIN    CLEAR     58  38  47 N5        29.99R
MITCHELL       CLEAR     54  39  57 NW8       29.97R
YANKTON        CLEAR     54  41  62 NW12      29.95R
$$

ABBREVIATIONS USED IN REMARKS
   TC - TEMPERATURE IN CELSIUS
  WCI - WIND CHILL INDEX
   HX - HEAT INDEX
  VSB - VISIBILITY




USA.gov is the U.S. government's official web portal to all federal, state and local government web resources and services.